User: anonymous   Login
Location: Unspecified
(0.0000°N, 0.0000°E)
Time: 11:02:57
(UTC+00:00)
Language:

GOMX 1 - Orbit

View from above orbital plane
View from above orbital plane
View from above satellite
View from above satellite

Ground track
Ground track

The orbit data is extracted from the following two-line orbital elements,

1 39423U 13066H   17352.15433224  .00000118  00000-0  33292-4 0  9992
2 39423  97.7034 325.4929 0174394 222.7891 135.9625 14.52908261215946
Epoch (UTC): 18 December 2017 03:42:14
Eccentricity: 0.0174394
inclination: 97.7034°
perigee height: 592 km
apogee height: 840 km
right ascension of ascending node: 325.4929°
argument of perigee: 222.7891°
revolutions per day: 14.52908261
mean anomaly at epoch: 135.9625°
orbit number at epoch: 21594

The dashed part of the orbit path shows where the satellite is in the earth's shadow,  

DLR